Regional Weather Roundup
Issued by NWS Pendleton, OR

Home | Current Version | Previous Version | Text Only | Print | Product List | Glossary On
Versions: 1 2 3 4 5 6 7 8 9 10 11 12 13 14 15 16 17 18 19 20 21 22 23 24 25 26 27 28 29 30 31 32 33 34 35 36 37 38 39 40 41 42 43 44 45 46 47 48 49 50
000
ASUS46 KPDT 050325
RWRPDT
PENDLETON REGIONAL WEATHER ROUNDUP
NATIONAL WEATHER SERVICE PENDLETON OREGON
800 PM PDT WED MAY 4 2016

NOTE: FAIR INDICATES FEW OR NO CLOUDS BELOW 12,000 FEET WITH NO
SIGNIFICANT WEATHER AND/OR OBSTRUCTIONS TO VISIBILITY.

# INDICATES UNOFFICIAL STATION AND DATA

WAZ520-050410-
EAST SLOPES OF WASHINGTON CASCADES

CITY            SKY/WX      TMP DP  RH  WIND    PRES   REMARKS
#CLE ELUM HS    N/A         55  48  77  W3      29.87S
#CLE ELUM 2NW   N/A         53  48  83  W1      N/A
#CLE ELUM LAKE  N/A         51  50  96  CALM    29.84S
#GLENWOOD       N/A         56  54  93  CALM    29.85R
#NELSON 3SW     N/A         50  48  93  CALM    30.04F
#NILE           N/A         54  51  90  CALM    29.13R
#RONALD 2NW     N/A         53  N/A N/A CALM    29.80S
#TEANAWAY 4NE   N/A         53  53  100 CALM    N/A
#TROUT LAKE 1NE N/A         55  52  90  CALM    29.84F
$$

WAZ521-050410-
SIMCOE HIGHLANDS

CITY            SKY/WX      TMP DP  RH  WIND    PRES   REMARKS
#BICKLETON HS   N/A         55  47  74  W10     N/A
#CENTERVILLE 1SWN/A         56  52  86  CALM    29.82F
#GOLDENDALE 1NE N/A         57  50  77  W7      N/A
#GOODNOE HILLS  N/A         58  54  87  W6      29.78F
#LYLE 6NE       N/A         52  51  96  S7      29.84S
$$

WAZ026-050410-
KITTITAS VALLEY

CITY            SKY/WX      TMP DP  RH  WIND    PRES   REMARKS
ELLENSBURG AP   PTCLDY      61  48  62  NW21G26 29.86S
YTC-OPS AREA    PTCLDY      55  45  69  W25     29.88F
#ELLENSBURG 3NE N/A         58  50  75  NW8     29.86S
#ELLENSBURG     N/A         62  52  70  W5      N/A
#ELLENSBURG 1E  N/A         59  N/A N/A CALM    N/A
#KITTITAS 4N    N/A         59  49  69  W12     29.90S
#KITTITAS 3S    N/A         59  49  69  NW7     29.79R
#THORP 6N       N/A         54  50  86  W7      29.87R
$$

WAZ027-050410-
YAKIMA VALLEY

CITY            SKY/WX      TMP DP  RH  WIND    PRES   REMARKS
SUNNYSIDE AP    THUNDER     67  51  56  W8      29.80R
YAKIMA AIRPORT  CLOUDY      69  48  47  NW9     29.83R
YAKIMA-VAGABOND MOCLEAR     67  49  52  N3      29.82R
#DONALD 2NE     N/A         68  31  25  W3      28.67R
#GRANDVIEW      N/A         72  48  43  W2      29.79R
#MABTON         N/A         72  54  53  S6      29.79S
#NACHES 2SW     N/A         61  51  70  W9      29.85S
#TERRACE HTS    N/A         69  50  51  N1      29.74S
#TOPPENISH      N/A         72  52  49  CALM    29.69S
#WEST VALLEY    N/A         66  50  56  N7      29.77R
#W YAKIMA       N/A         64  50  60  N3      29.80R
#WHITE SWAN 5E  N/A         69  54  59  W12     29.78S
#WILEY CITY 3W  N/A         65  48  54  CALM    29.80S
$$

WAZ028-050410-
LOWER COLUMBIA BASIN...WASHINGTON

CITY            SKY/WX      TMP DP  RH  WIND    PRES   REMARKS
PASCO           THUNDER     68  56  65  NE6     29.80R RAIN
PROSSER AWOS    N/A         68  54  61  SW7     29.84R
RICHLAND AWOS   LGT RAIN    68  58  70  E7      29.81R
#BENTON CITY    N/A         71  53  53  SE6     29.67R
#CONNELL 5N     N/A         67  52  59  N3      29.74F
#CONNELL 5NW    N/A         68  52  57  N2      29.71F
#ELTOPIA 6NW    N/A         70  54  57  CALM    28.76F
#KAHLOTUS       N/A         71  45  39  NE14    29.73F
#KENNEWICK 3S   N/A         73  56  55  CALM    29.77R
#PATERSON       N/A         64  56  75  NW15G26 29.78R
#SAGEMOOR 2W    N/A         71  59  66  E1      29.62R
#TOUCHET 2S     N/A         67  56  68  N2      29.72S
#WEST PASCO     N/A         74  54  50  CALM    29.83R
$$

WAZ029-050410-
FOOTHILLS OF THE BLUES...WASHINGTON

CITY            SKY/WX      TMP DP  RH  WIND    PRES   REMARKS
WALLA WALLA AP  THUNDER     67  49  52  SW32G54 29.85R RAIN
#CLYDE 6NW      N/A         68  48  49  NE2     29.73S
#DAYTON SCHOOL  N/A         68  48  49  NE5     29.80F
#LOWDEN 2SE     N/A         70  55  59  W7      29.74R
#PLEASANT VIEW 1N/A         68  48  49  N2      29.76F
#PRESCOTT       N/A         71  53  53  CALM    29.71S
#SUDBURY        N/A         63  N/A N/A CALM    N/A
#WHITMAN COLLEGEN/A         67  51  56  SW21G41 29.86R
#WAITSBURG 5S   N/A         67  52  59  N3      29.80S
#WAITSBURG 8N   N/A         65  21  18  N3      29.59F
#WALLA WALLA U  N/A         73  53  49  CALM    29.74R
#WHITMAN MISSIONN/A         71  55  57  SW2     29.78R
$$

WAZ030-050410-
BLUE MOUNTAINS...WASHINGTON

CITY            SKY/WX      TMP DP  RH  WIND    PRES   REMARKS
$$

ORZ009-041-WAZ024-050410-
COLUMBIA RIVER GORGE

CITY            SKY/WX      TMP DP  RH  WIND    PRES   REMARKS
HOOD RIVER AP   CLOUDY      57  54  90  CALM    29.91R
THE DALLES AP   CLOUDY      59  53  80  NW9     29.88R
#ARLINGTON AIRPON/A         59  55  87  W3      29.85R
#CELILO DOT     N/A         62  56  81  SW3     N/A
#MARYHILL 2W    N/A         58  57  96  CALM    N/A
#MOSIER 1S      N/A         55  49  80  NW2     29.88S
#MURDOCK        N/A         59  53  80  NW17G24 29.84S
#RUFUS DOT      N/A         66  53  63  NE2     N/A

$$

ORZ510-050410-
NORTH CENTRAL OREGON

CITY            SKY/WX      TMP DP  RH  WIND    PRES   REMARKS
#ANTELOPE       N/A         55  52  90  N5      29.72R
#COW CYN RST AREN/A         54  53  96  E1      N/A
#DUFUR 9E       N/A         54  50  86  SW6     29.90R
#GRASS VALLEY   N/A         53  53  100 S1      N/A
#GRASS VALLEY 1SN/A         54  52  93  CALM    29.85F
#KENT DOT       N/A         53  48  83  N2      N/A
#MAUPIN SCHOOL  N/A         60  56  87  CALM    29.91S
#MORO SCHOOL    N/A         56  55  96  W1      29.90R
#TYGH VALLEY 2NEN/A         59  55  87  CALM    29.84F
#WAPANITIA AIRPON/A         58  54  87  CALM    29.86S
#WASCO 5NE      N/A         55  52  90  SW3     29.84S
$$

ORZ511-050410-
CENTRAL OREGON

CITY            SKY/WX      TMP DP  RH  WIND    PRES   REMARKS
BEND AIRPORT    CLOUDY      54  52  93  CALM    29.93R
MADRAS AIRPORT  PTCLDY      59  59  100 N3      29.94R
PRINEVILLE AP   CLOUDY      54  52  93  CALM    29.94R
REDMOND AIRPORT CLOUDY      56  50  80  CALM    29.93R
#ASHWOOD SCHOOL N/A         55  52  90  CALM    29.88S
#BEND 1SW       N/A         52  49  89  CALM    N/A
#BEND-AWBREY    N/A         53  51  93  CALM    29.85R
#BEND-KIM LN    N/A         53  50  89  CALM    29.91R
#CULVER         N/A         56  52  86  W1      29.83R
#LAKE BILLY CHINN/A         56  N/A N/A CALM    30.00R
#POWELL BUTTE   N/A         53  49  86  SW1     29.82R
#PRINEVILLE 3N  N/A         56  N/A N/A NW2     29.86R
#WARM SPRINGS   N/A         59  55  87  CALM    29.88R

$$


ORZ509-050410-
EAST SLOPES OF OREGON CASCADES

CITY            SKY/WX      TMP DP  RH  WIND    PRES   REMARKS
SISTERS AWOS    N/A         55  54  96  CALM    29.91R
#BLUE BOX PASS  N/A         47  N/A N/A CALM    N/A
#CAMP SHERMAN   N/A         56  52  86  CALM    29.93S
#LA PINE DOT    N/A         53  47  80  NW3     N/A
#LA PINE 4NW    N/A         52  48  86  CALM    29.88R
#LAVA BUTTE DOT N/A         51  47  86  CALM    N/A
#SISTERS AIRPOR N/A         56  56  100 N1      30.17S
#SISTERS ODOT   N/A         56  N/A N/A CALM    N/A
#SISTERS 3N     N/A         54  50  86  CALM    29.94R
#SUNRIVER       N/A         53  50  89  CALM    29.87R
#TUMALO 3W      N/A         54  51  90  CALM    29.75R
#WANOGA BUTTE D N/A         46  43  89  N1      N/A

$$

ORZ044-050410-
LOWER COLUMBIA BASIN...OREGON

CITY            SKY/WX      TMP DP  RH  WIND    PRES   REMARKS
HERMISTON       RAIN        61  59  93  W17G26  29.87R FOG
#BOARDMAN SCHOOLN/A         64  56  75  SW15G26 29.81R
#BOARDMAN 8SW   N/A         61  56  84  SW16    29.84R
#ECHO 8SW       N/A         59  59  100 SW7     29.89R
#I-84 EX 198 DOTN/A         57  55  93  NE14    N/A
#UMATILLA SCHOOLN/A         65  63  93  S12G28  29.88R
#UMATILLA       N/A         69  52  55  SW14    29.75R
$$

ORZ507-050410-
NORTHERN FOOTHILLS OF THE BLUES

CITY            SKY/WX      TMP DP  RH  WIND    PRES   REMARKS
PENDLETON AIRPT LGT RAIN    57  53  86  W25G36  29.86R
#ADAMS 3WNW     N/A         55  53  93  W18G31  29.80R
#ATHENA         N/A         64  50  60  SW8     29.85R
#HELIX 3N       N/A         56  52  86  SW24G41 29.86R
#HELIX 6SW      N/A         60  51  72  SW17G35 29.88R
#HOLDMAN 5SE    N/A         58  53  83  SW13    29.87R
#HOLDMAN 6E     N/A         57  52  83  N15G45  29.62R
#M-F FERNDALE   N/A         73  51  46  CALM    29.79R
#M-F GROVE ELEM N/A         67  48  50  SW16G45 29.83R
#M-FREEWATER 5SEN/A         70  50  49  SW22G32 29.87R
#PENDLETON DNTN N/A         59  48  67  SW1     29.89R
#PDT AQUATIC CTRN/A         59  46  62  SW7     29.90R
#PDT SUNRIDGE   N/A         58  53  83  E2      29.89R
#PENDLETON 7NW  N/A         61  53  75  SW15G25 32.33S
#PILOT ROCK     N/A         57  50  77  S5      29.88
#TUTUILLA       N/A         56  52  86  CALM    29.85R
#UMAPINE 2E     N/A         71  55  57  W1      29.75R
#WESTON SCHOOL  N/A         60  48  64  W20G40  29.80R

$$

ORZ508-050410-
SOUTHERN FOOTHILLS OF THE BLUES

CITY            SKY/WX      TMP DP  RH  WIND    PRES   REMARKS
#AJAX           N/A         55  48  77  CALM    27.65F
#CONDON 5W      N/A         52  50  93  W5      29.89F
#FOSSIL SCHOOL  N/A         55  52  90  CALM    29.87F
#HEPPNER EOC    N/A         56  52  86  N16G31  29.80R
#HEPPNER 4NE    N/A         52  50  93  SW5     29.85R
#LEXINGTON 2SE  N/A         60  54  81  SW13    29.89R
#OLEX 4N        N/A         59  55  87  SW12    29.88R
#RUGGS 5NE      N/A         53  52  96  NW15    30.04S
#RUGGS 2SW      N/A         54  51  90  N5      29.79F

$$

ORZ502-503-050410-
BLUE MOUNTAINS

CITY            SKY/WX      TMP DP  RH  WIND    PRES   REMARKS
MEACHAM         LGT RAIN    51  47  86  CALM    29.96R
#BATTLE MTN DOT N/A         49  49  100 S6      N/A
#GREENHORN 9SW  N/A         56  45  66  W1      26.12F
#HARDMAN 10S    N/A         61  34  36  N5      30.22R
#HEPPNER 15SE   N/A         48  47  96  CALM    25.46F
#LADD CYN SMT   N/A         65  41  41  W5      N/A
#LADD CREEK ODOTN/A         67  49  52  W8      N/A
#LONG CREEK HS  N/A         53  51  93  CALM    N/A
#N POWDER DOT   N/A         66  48  52  SW1     N/A
#PIKES PEAK     N/A         61  50  67  CALM    27.99S
#TOLLGATE       N/A         54  49  83  CALM    29.81R
#TROY SCHOOL    N/A         74  52  46  CALM    29.55S
#UKIAH          N/A         50  48  93  S3      29.73S
#WESTON 4E      N/A         55  46  72  SW20G35 29.78R
$$

ORZ505-050410-
JOHN DAY BASIN

CITY            SKY/WX      TMP DP  RH  WIND    PRES   REMARKS
JOHN DAY        PTCLDY      59  45  60  SW6     29.90S
#MITCHELL       N/A         55  52  90  CALM    30.08R
#MITCHELL 8NW   N/A         51  48  89  SW2     30.03R
#MONUMENT HS    N/A         58  52  80  CALM    29.84R
#MT. VERNON 5SE N/A         56  45  66  SE1     29.87R
#SPRAY SCHOOL   N/A         58  N/A N/A CALM    N/A
#WINLOCK        N/A         52  50  93  CALM    29.90R
$$

ORZ506-050410-
OCHOCO AND JOHN DAY HIGHLANDS

CITY            SKY/WX      TMP DP  RH  WIND    PRES   REMARKS
#BUCK CREEK DOT N/A         57  50  77  S5      N/A
#HORSE RIDGE DO N/A         53  49  86  NW2     N/A
#KEYES SMT DOT  N/A         51  46  83  N9      N/A
#PAULINA SCHOOL N/A         55  50  83  CALM    29.16S
#PINE MTN OBS   N/A         45  42  89  SE10G24 N/A
#PRAIRIE CITY   N/A         61  44  53  CALM    29.85F
#SENECA         N/A         55  N/A N/A CALM    N/A
#SENECA 9NW     N/A         53  44  71  CALM    29.75F
$$

ORZ049-050410-
GRANDE RONDE VALLEY

CITY            SKY/WX      TMP DP  RH  WIND    PRES   REMARKS
LA GRANDE       CLOUDY      63  39  41  NW16G26 29.85R
#COVE           N/A         66  55  68  W14     29.89R
#COVE SCHOOL    N/A         65  51  60  N5      29.89R
#COVE 6NW       N/A         63  47  56  W15G26  29.71R
#ELGIN 3N       N/A         67  49  52  W9      29.83R
#ELGIN 1E       N/A         71  47  42  CALM    N/A
#IMBLER SCHOOL  N/A         64  50  60  W7      29.77S
#ISLAND CITY 4N N/A         58  51  77  CALM    29.97R
#LADD CYN DOT   N/A         69  49  49  W14     N/A
#LA GRANDE ELEM N/A         60  46  60  W15G26  29.91R
#UNION 1S       N/A         66  49  54  E1      29.62R
$$

ORZ050-050410-
WALLOWA COUNTY

CITY            SKY/WX      TMP DP  RH  WIND    PRES   REMARKS
JOSEPH AIRPORT  MOCLDY      57  46  67  CALM    29.88S
#ENTERPRISE AP  N/A         49  29  46  CALM    29.81S
#ENTERPRISE HS  N/A         66  51  58  CALM    29.86S
#IMNAHA SCHOOL  N/A         70  54  57  CALM    29.77S
#IMNAHA 10S     N/A         66  49  54  CALM    29.81S
#JOSEPH 3N      N/A         63  48  58  CALM    29.90S
#JOSEPH 3W      N/A         55  40  57  SW5     29.76S
#LOSTINE        N/A         63  49  60  CALM    29.52S
#MT HOWARD 8000 N/A         49  29  46  S7      30.08S
#PROMISE 1S     N/A         64  49  58  W3      29.82F
#WALLOWA SCHOOL N/A         68  51  55  CALM    29.79S



$$



USA.gov is the U.S. government's official web portal to all federal, state and local government web resources and services.